Regional Weather Roundup
Issued by NWS

Home | Current Version | Previous Version | Graphics & Text | Print | Product List | Glossary Off
Versions: 1 2 3 4 5 6 7 8 9 10 11 12 13 14 15 16 17 18 19 20 21 22 23 24 25 26 27 28 29 30 31 32 33 34 35 36 37 38 39 40 41 42 43 44 45 46 47 48 49 50

000
ASUS43 KFSD 252102
RWRSD

WEATHER ROUNDUP FOR SOUTH DAKOTA
NATIONAL WEATHER SERVICE SIOUX FALLS SD
400 PM CDT THU MAY 25 2017

NOTE: "FAIR" INDICATES FEW OR NO CLOUDS BELOW 12,000 FEET WITH NO
SIGNIFICANT WEATHER AND/OR OBSTRUCTIONS TO VISIBILITY.


SDZ001>005-009-010-012>017-252200-
NORTHWEST AND NORTH CENTRAL SOUTH DAKOTA

CITY           SKY/WX    TMP DP  RH WIND       PRES   REMARKS
BUFFALO          N/A     63  38  39 W32G38    29.50R
FAITH            N/A     72  33  24 NW18G29   29.52R
MOBRIDGE       CLOUDY    75  39  27 N7        29.45R
$$

SDZ012>016-024>037-041>051-057-063-072>074-252200-
SOUTHWEST AND SOUTH CENTRAL SOUTH DAKOTA

CITY           SKY/WX    TMP DP  RH WIND       PRES   REMARKS
RAPID CTY ARPT CLOUDY    66  34  30 N7        29.57S
PIERRE         CLOUDY    73  38  27 NW9       29.48F
CUSTER         SUNNY     59  30  33 W14       29.64S
ELLSWORTH AFB  CLOUDY    68  31  25 NE6       29.57S
PHILIP         MOSUNNY   76  33  21 W12G17    29.52R
PINE RIDGE     CLOUDY    70  45  40 NW6       29.58R
SPEARFISH      FAIR      64  32  29 W20G26    29.60R
WINNER         FAIR      72  51  47 N8        29.53R
$$

SDZ004>011-016>023-039-040-252200-
NORTHEAST SOUTH DAKOTA

CITY           SKY/WX    TMP DP  RH WIND       PRES   REMARKS
ABERDEEN       CLOUDY    72  49  44 S13       29.45R
WATERTOWN      CLOUDY    67  49  52 S23G29    29.51S
BROOKINGS      CLOUDY    68  50  52 S18       29.54S
SISSETON         N/A     67  52  58 S17       29.47F
$$

SDZ017-020-022-023-036>040-048>070-252200-
SOUTHEAST SOUTH DAKOTA

CITY           SKY/WX    TMP DP  RH WIND       PRES   REMARKS
SIOUX FALLS    CLOUDY    69  53  56 S13       29.53S
HURON          LGT RAIN  61  56  83 SW9       29.49R
MITCHELL       LGT RAIN  63  56  78 SW7       29.52R
YANKTON        CLOUDY    70  49  47 S12       29.54R
$$

ABBREVIATIONS USED IN REMARKS
   TC - TEMPERATURE IN CELSIUS
  WCI - WIND CHILL INDEX
   HX - HEAT INDEX
  VSB - VISIBILITY





USA.gov is the U.S. government's official web portal to all federal, state and local government web resources and services.